User: anonymous   Login
Location: Unspecified
(0.0000°N, 0.0000°E)
Time: 15:24:55
(UTC+00:00)
Language:

BEESAT - Orbit

View from above orbital plane
View from above orbital plane
View from above satellite
View from above satellite

Ground track
Ground track

The orbit data is extracted from the following two-line orbital elements,

1 35933U 09051C   17228.38524755  .00000115  00000-0  36962-4 0  9994
2 35933  98.5078   9.3435 0007086  82.5452 277.6550 14.56152717419187
Epoch (UTC): 16 August 2017 09:14:45
Eccentricity: 0.0007086
inclination: 98.5078°
perigee height: 700 km
apogee height: 710 km
right ascension of ascending node: 9.3435°
argument of perigee: 82.5452°
revolutions per day: 14.56152717
mean anomaly at epoch: 277.6550°
orbit number at epoch: 41918

The dashed part of the orbit path shows where the satellite is in the earth's shadow,  

DLR